| time (UTC) | temp F | wind direction | speed knots | gust knots | rain 1hr in | rain 24hr in | rain mn in | humidity % | barometer mb |
| 20260510211417 | 68 | 113 | 0.9 | 5.2 | 0.00 | 0.00 | 0.00 | 73 | 1028.7 |
| 20260510210919 | 67 | 34 | 0.9 | 2.6 | 0.00 | 0.00 | 0.00 | 70 | 1028.7 |
| 20260510210416 | 67 | 82 | 0.9 | 3.5 | 0.00 | 0.00 | 0.00 | 70 | 1028.6 |
| 20260510205916 | 68 | 60 | 0.9 | 3.5 | 0.00 | 0.00 | 0.00 | 70 | 1028.6 |
| 20260510205415 | 68 | 168 | 1.7 | 6.1 | 0.00 | 0.00 | 0.00 | 70 | 1028.5 |
| 20260510204917 | 68 | 111 | 2.6 | 6.1 | 0.00 | 0.00 | 0.00 | 70 | 1028.5 |
| 20260510204411 | 68 | 126 | 2.6 | 6.1 | 0.00 | 0.00 | 0.00 | 71 | 1028.5 |
| 20260510203911 | 68 | 86 | 2.6 | 7.8 | 0.00 | 0.00 | 0.00 | 71 | 1028.5 |
| 20260510203413 | 68 | 71 | 2.6 | 7.8 | 0.00 | 0.00 | 0.00 | 71 | 1028.6 |
| 20260510202911 | 68 | 40 | 1.7 | 5.2 | 0.00 | 0.00 | 0.00 | 72 | 1028.5 |
| 20260510202413 | 67 | 81 | 0.9 | 3.5 | 0.00 | 0.00 | 0.00 | 71 | 1028.6 |
| 20260510201913 | 66 | 0 | 0.9 | 3.5 | 0.00 | 0.00 | 0.00 | 70 | 1028.7 |
| 20260510201407 | 66 | 236 | 0.9 | 2.6 | 0.00 | 0.00 | 0.00 | 70 | 1028.7 |
| 20260510200909 | 66 | 111 | 1.7 | 3.5 | 0.00 | 0.00 | 0.00 | 71 | 1028.7 |
| 20260510200408 | 65 | 84 | 0.9 | 3.5 | 0.00 | 0.00 | 0.00 | 73 | 1028.7 |
| 20260510195907 | 65 | 87 | 0.9 | 5.2 | 0.00 | 0.00 | 0.00 | 73 | 1028.6 |
| 20260510195408 | 64 | 306 | 0.9 | 5.2 | 0.00 | 0.00 | 0.00 | 73 | 1028.7 |
| 20260510194910 | 64 | 220 | 0.9 | 5.2 | 0.00 | 0.00 | 0.00 | 73 | 1028.7 |
| 20260510194407 | 64 | 235 | 0.9 | 5.2 | 0.00 | 0.00 | 0.00 | 73 | 1028.7 |
| 20260510193907 | 64 | 223 | 0.9 | 3.5 | 0.00 | 0.00 | 0.00 | 75 | 1028.6 |
| 20260510193406 | 64 | 211 | 0.9 | 2.6 | 0.00 | 0.00 | 0.00 | 74 | 1028.7 |
| 20260510192905 | 64 | 207 | 0.9 | 2.6 | 0.00 | 0.00 | 0.00 | 74 | 1028.7 |
| 20260510192405 | 64 | 260 | 0.9 | 2.6 | 0.00 | 0.00 | 0.00 | 73 | 1028.7 |
| 20260510191905 | 64 | 259 | 0.0 | 2.6 | 0.00 | 0.00 | 0.00 | 73 | 1028.6 |
| 20260510191401 | 64 | 246 | 0.0 | 2.6 | 0.00 | 0.00 | 0.00 | 72 | 1028.5 |
| 20260510190903 | 64 | 259 | 0.9 | 4.3 | 0.00 | 0.00 | 0.00 | 72 | 1028.4 |
| 20260510190403 | 64 | 207 | 1.7 | 4.3 | 0.00 | 0.00 | 0.00 | 73 | 1028.3 |
| 20260510185859 | 64 | 150 | 0.9 | 3.5 | 0.00 | 0.00 | 0.00 | 73 | 1028.3 |
| 20260510185400 | 65 | 200 | 1.7 | 5.2 | 0.00 | 0.00 | 0.00 | 72 | 1028.5 |
| 20260510184855 | 65 | 276 | 1.7 | 5.2 | 0.00 | 0.00 | 0.00 | 72 | 1028.5 |
| 20260510184355 | 65 | 221 | 1.7 | 4.3 | 0.00 | 0.00 | 0.00 | 71 | 1028.5 |
| 20260510183853 | 65 | 200 | 1.7 | 4.3 | 0.00 | 0.00 | 0.00 | 73 | 1028.5 |
| 20260510183353 | 65 | 291 | 1.7 | 3.5 | 0.00 | 0.00 | 0.00 | 72 | 1028.3 |
| 20260510182853 | 65 | 297 | 0.9 | 3.5 | 0.00 | 0.00 | 0.00 | 74 | 1028.2 |
| 20260510182354 | 64 | 355 | 0.9 | 3.5 | 0.00 | 0.00 | 0.00 | 72 | 1028.1 |
| 20260510181855 | 64 | 215 | 1.7 | 5.2 | 0.00 | 0.00 | 0.00 | 73 | 1028.1 |
| 20260510181349 | 65 | 269 | 1.7 | 5.2 | 0.00 | 0.00 | 0.00 | 71 | 1028.1 |
| 20260510180847 | 65 | 225 | 1.7 | 4.3 | 0.00 | 0.00 | 0.00 | 70 | 1028.1 |
| 20260510180347 | 66 | 340 | 0.9 | 2.6 | 0.00 | 0.00 | 0.00 | 71 | 1028.0 |
| 20260510175847 | 66 | 243 | 0.9 | 3.5 | 0.00 | 0.00 | 0.00 | 71 | 1028.1 |
| 20260510175346 | 65 | 101 | 0.9 | 3.5 | 0.00 | 0.00 | 0.00 | 73 | 1027.9 |
| 20260510174843 | 64 | 111 | 0.9 | 3.5 | 0.00 | 0.00 | 0.00 | 73 | 1028.0 |
| 20260510174343 | 64 | 161 | 0.0 | 2.6 | 0.00 | 0.00 | 0.00 | 72 | 1028.3 |
| 20260510173841 | 64 | 130 | 0.9 | 2.6 | 0.00 | 0.00 | 0.00 | 73 | 1028.2 |
| 20260510173342 | 63 | 131 | 1.7 | 4.3 | 0.00 | 0.00 | 0.00 | 74 | 1028.4 |
| 20260510172841 | 63 | 132 | 1.7 | 4.3 | 0.00 | 0.00 | 0.00 | 75 | 1028.3 |
| 20260510172341 | 62 | 162 | 1.7 | 4.3 | 0.00 | 0.00 | 0.00 | 76 | 1028.3 |
| 20260510171838 | 62 | 271 | 1.7 | 4.3 | 0.00 | 0.00 | 0.00 | 75 | 1028.3 |
| 20260510171337 | 62 | 248 | 1.7 | 4.3 | 0.00 | 0.00 | 0.00 | 76 | 1028.1 |
| 20260510170835 | 62 | 294 | 0.9 | 3.5 | 0.00 | 0.00 | 0.00 | 77 | 1028.1 |
| 20260510170335 | 61 | 42 | 0.9 | 3.5 | 0.00 | 0.00 | 0.00 | 77 | 1028.0 |
| 20260510165835 | 61 | 40 | 1.7 | 4.3 | 0.00 | 0.00 | 0.00 | 77 | 1027.9 |
| 20260510165335 | 61 | 271 | 1.7 | 4.3 | 0.00 | 0.00 | 0.00 | 78 | 1028.0 |
| 20260510164829 | 61 | 113 | 1.7 | 4.3 | 0.00 | 0.00 | 0.00 | 79 | 1027.8 |
| 20260510164329 | 60 | 254 | 0.9 | 4.3 | 0.00 | 0.00 | 0.00 | 80 | 1027.8 |
| 20260510163829 | 60 | 215 | 0.9 | 3.5 | 0.00 | 0.00 | 0.00 | 81 | 1027.8 |
| 20260510163329 | 59 | 209 | 0.9 | 3.5 | 0.00 | 0.00 | 0.00 | 81 | 1027.9 |
| 20260510162829 | 59 | 200 | 0.9 | 5.2 | 0.00 | 0.00 | 0.00 | 82 | 1028.0 |
| 20260510162330 | 59 | 198 | 0.9 | 5.2 | 0.00 | 0.00 | 0.00 | 83 | 1027.9 |
| 20260510161826 | 58 | 284 | 1.7 | 5.2 | 0.00 | 0.00 | 0.00 | 83 | 1027.9 |
| 20260510161323 | 58 | 257 | 1.7 | 5.2 | 0.00 | 0.00 | 0.00 | 84 | 1027.9 |
| 20260510160823 | 58 | 235 | 1.7 | 3.5 | 0.00 | 0.00 | 0.00 | 83 | 1027.8 |
| 20260510160323 | 58 | 254 | 1.7 | 3.5 | 0.00 | 0.00 | 0.00 | 83 | 1027.8 |
| 20260510155823 | 57 | 225 | 1.7 | 5.2 | 0.00 | 0.00 | 0.00 | 84 | 1027.8 |
| 20260510155324 | 57 | 240 | 2.6 | 5.2 | 0.00 | 0.00 | 0.00 | 83 | 1027.8 |
| 20260510154818 | 57 | 260 | 2.6 | 5.2 | 0.00 | 0.00 | 0.00 | 85 | 1027.8 |
| 20260510154317 | 57 | 227 | 2.6 | 5.2 | 0.00 | 0.00 | 0.00 | 86 | 1027.8 |
| 20260510153817 | 56 | 261 | 2.6 | 4.3 | 0.00 | 0.00 | 0.00 | 86 | 1027.8 |
| 20260510153317 | 56 | 225 | 2.6 | 6.1 | 0.00 | 0.00 | 0.00 | 87 | 1027.8 |
| 20260510152817 | 56 | 238 | 2.6 | 6.1 | 0.00 | 0.00 | 0.00 | 87 | 1027.6 |
| 20260510152318 | 55 | 239 | 1.7 | 6.1 | 0.00 | 0.00 | 0.00 | 87 | 1027.6 |
| 20260510151812 | 55 | 234 | 2.6 | 6.1 | 0.00 | 0.00 | 0.00 | 87 | 1027.7 |
| 20260510151312 | 55 | 271 | 2.6 | 6.1 | 0.00 | 0.00 | 0.00 | 87 | 1027.7 |
| 20260510150811 | 55 | 267 | 1.7 | 5.2 | 0.00 | 0.00 | 0.00 | 87 | 1027.4 |
| 20260510150310 | 55 | 265 | 1.7 | 5.2 | 0.00 | 0.00 | 0.00 | 87 | 1027.4 |
| 20260510145811 | 55 | 265 | 1.7 | 5.2 | 0.00 | 0.00 | 0.00 | 88 | 1027.2 |
| 20260510145312 | 55 | 229 | 1.7 | 4.3 | 0.00 | 0.00 | 0.00 | 88 | 1027.4 |
| 20260510144808 | 54 | 241 | 0.9 | 2.6 | 0.00 | 0.00 | 0.00 | 88 | 1027.3 |
| 20260510144307 | 54 | 256 | 0.9 | 2.6 | 0.00 | 0.00 | 0.00 | 88 | 1027.0 |
| 20260510143804 | 53 | 265 | 0.0 | 2.6 | 0.00 | 0.00 | 0.00 | 89 | 1027.1 |
| 20260510143310 | 53 | 194 | 0.0 | 2.6 | 0.00 | 0.00 | 0.00 | 89 | 1027.1 |
| 20260510142805 | 52 | 192 | 0.0 | 0.9 | 0.00 | 0.00 | 0.00 | 90 | 1027.1 |
| 20260510142306 | 52 | 192 | 0.0 | 0.9 | 0.00 | 0.00 | 0.00 | 90 | 1026.7 |
| 20260510141803 | 52 | 192 | 0.0 | 0.9 | 0.00 | 0.00 | 0.00 | 91 | 1026.6 |
| 20260510141303 | 51 | 191 | 0.0 | 0.9 | 0.00 | 0.00 | 0.00 | 91 | 1026.8 |
| 20260510140804 | 51 | 181 | 0.0 | 0.0 | 0.00 | 0.00 | 0.00 | 91 | 1026.7 |
| 20260510140300 | 51 | 181 | 0.0 | 0.0 | 0.00 | 0.00 | 0.00 | 91 | 1026.6 |
| 20260510135758 | 51 | 181 | 0.0 | 0.0 | 0.00 | 0.00 | 0.00 | 91 | 1026.4 |
| 20260510135300 | 51 | 182 | 0.0 | 0.0 | 0.00 | 0.00 | 0.00 | 91 | 1026.4 |
| 20260510134752 | 50 | 181 | 0.0 | 0.0 | 0.00 | 0.00 | 0.00 | 91 | 1026.4 |
| 20260510134252 | 50 | 182 | 0.0 | 0.0 | 0.00 | 0.00 | 0.00 | 91 | 1026.2 |
| 20260510133748 | 50 | 181 | 0.0 | 0.0 | 0.00 | 0.00 | 0.00 | 91 | 1026.3 |
| 20260510133246 | 50 | 181 | 0.0 | 0.0 | 0.00 | 0.00 | 0.00 | 91 | 1026.3 |
| 20260510132746 | 50 | 182 | 0.0 | 0.0 | 0.00 | 0.00 | 0.00 | 91 | 1026.4 |
| 20260510132243 | 50 | 182 | 0.0 | 0.0 | 0.00 | 0.00 | 0.00 | 91 | 1026.4 |
| 20260510131743 | 50 | 181 | 0.0 | 0.0 | 0.00 | 0.00 | 0.00 | 91 | 1026.4 |
| 20260510131244 | 50 | 182 | 0.0 | 0.0 | 0.00 | 0.00 | 0.00 | 90 | 1026.6 |
| 20260510130743 | 51 | 181 | 0.0 | 0.0 | 0.00 | 0.00 | 0.00 | 90 | 1026.4 |
| 20260510130241 | 51 | 182 | 0.0 | 0.0 | 0.00 | 0.00 | 0.00 | 90 | 1026.4 |
| 20260510125742 | 51 | 181 | 0.0 | 0.0 | 0.00 | 0.00 | 0.00 | 90 | 1026.2 |
| 20260510125236 | 51 | 182 | 0.0 | 0.0 | 0.00 | 0.00 | 0.00 | 90 | 1026.1 |
| 20260510124735 | 51 | 181 | 0.0 | 0.0 | 0.00 | 0.00 | 0.00 | 90 | 1026.1 |
| 20260510124235 | 51 | 182 | 0.0 | 0.0 | 0.00 | 0.00 | 0.00 | 90 | 1026.2 |
| 20260510123734 | 51 | 180 | 0.0 | 0.0 | 0.00 | 0.00 | 0.00 | 90 | 1026.0 |
| 20260510123234 | 51 | 182 | 0.0 | 0.0 | 0.00 | 0.00 | 0.00 | 90 | 1026.0 |
| 20260510122734 | 51 | 205 | 0.0 | 0.0 | 0.00 | 0.00 | 0.00 | 90 | 1026.4 |
| 20260510122233 | 51 | 205 | 0.0 | 0.0 | 0.00 | 0.00 | 0.00 | 90 | 1026.3 |
| 20260510121732 | 51 | 205 | 0.0 | 0.9 | 0.00 | 0.00 | 0.00 | 90 | 1026.2 |
| 20260510121232 | 51 | 205 | 0.0 | 0.9 | 0.00 | 0.00 | 0.00 | 90 | 1026.0 |
| 20260510120734 | 51 | 206 | 0.0 | 0.9 | 0.00 | 0.00 | 0.00 | 90 | 1026.1 |
| 20260510120232 | 51 | 205 | 0.0 | 0.9 | 0.00 | 0.00 | 0.00 | 90 | 1026.1 |
| 20260510115733 | 51 | 205 | 0.0 | 0.9 | 0.00 | 0.00 | 0.00 | 90 | 1026.0 |
| 20260510115233 | 52 | 267 | 0.0 | 0.0 | 0.00 | 0.00 | 0.00 | 90 | 1026.0 |
| 20260510114729 | 52 | 267 | 0.0 | 0.0 | 0.00 | 0.00 | 0.00 | 90 | 1026.1 |
| 20260510114230 | 52 | 267 | 0.0 | 0.0 | 0.00 | 0.00 | 0.00 | 89 | 1026.1 |
| 20260510113729 | 52 | 267 | 0.0 | 0.0 | 0.00 | 0.00 | 0.00 | 90 | 1025.9 |
| 20260510113228 | 52 | 267 | 0.0 | 0.0 | 0.00 | 0.00 | 0.00 | 90 | 1025.9 |
| 20260510112729 | 52 | 267 | 0.0 | 0.0 | 0.00 | 0.00 | 0.00 | 89 | 1025.9 |
| 20260510112228 | 52 | 268 | 0.0 | 0.0 | 0.00 | 0.00 | 0.00 | 89 | 1025.9 |
| 20260510111725 | 52 | 268 | 0.0 | 1.7 | 0.00 | 0.00 | 0.00 | 89 | 1026.1 |
| 20260510111224 | 52 | 267 | 0.0 | 1.7 | 0.00 | 0.00 | 0.00 | 90 | 1026.1 |
| 20260510110725 | 52 | 267 | 0.0 | 1.7 | 0.00 | 0.00 | 0.00 | 90 | 1026.0 |
| 20260510110225 | 51 | 267 | 0.0 | 1.7 | 0.00 | 0.00 | 0.00 | 90 | 1026.0 |
| 20260510105724 | 51 | 268 | 0.0 | 0.9 | 0.00 | 0.00 | 0.00 | 90 | 1026.0 |
| 20260510105226 | 52 | 268 | 0.0 | 0.0 | 0.00 | 0.00 | 0.00 | 89 | 1025.8 |
| 20260510104721 | 52 | 267 | 0.0 | 1.7 | 0.00 | 0.00 | 0.00 | 89 | 1025.7 |
| 20260510104220 | 52 | 267 | 0.0 | 1.7 | 0.00 | 0.00 | 0.00 | 90 | 1025.6 |
| 20260510103721 | 52 | 267 | 0.0 | 0.0 | 0.00 | 0.00 | 0.00 | 90 | 1025.6 |
| 20260510103220 | 52 | 267 | 0.0 | 0.0 | 0.00 | 0.00 | 0.00 | 90 | 1025.6 |
| 20260510102720 | 52 | 268 | 0.0 | 0.0 | 0.00 | 0.00 | 0.00 | 90 | 1025.7 |
| 20260510102221 | 52 | 267 | 0.0 | 0.0 | 0.00 | 0.00 | 0.00 | 90 | 1025.6 |
| 20260510101718 | 52 | 267 | 0.0 | 0.0 | 0.00 | 0.00 | 0.00 | 90 | 1025.5 |
| 20260510101216 | 52 | 267 | 0.0 | 0.0 | 0.00 | 0.00 | 0.00 | 89 | 1025.4 |
| 20260510100716 | 52 | 267 | 0.0 | 0.0 | 0.00 | 0.00 | 0.00 | 89 | 1025.3 |
| 20260510100216 | 52 | 267 | 0.0 | 0.0 | 0.00 | 0.00 | 0.00 | 88 | 1025.1 |
| 20260510095716 | 52 | 267 | 0.0 | 0.0 | 0.00 | 0.00 | 0.00 | 88 | 1024.9 |
| 20260510095217 | 53 | 267 | 0.0 | 0.0 | 0.00 | 0.00 | 0.00 | 88 | 1024.9 |
| 20260510094716 | 53 | 267 | 0.0 | 0.0 | 0.00 | 0.00 | 0.00 | 88 | 1024.8 |
| 20260510094217 | 53 | 267 | 0.0 | 0.0 | 0.00 | 0.00 | 0.00 | 88 | 1024.6 |
| 20260510093711 | 53 | 267 | 0.0 | 0.9 | 0.00 | 0.00 | 0.00 | 88 | 1024.7 |
| 20260510093209 | 53 | 267 | 0.0 | 0.9 | 0.00 | 0.00 | 0.00 | 88 | 1024.6 |
| 20260510092707 | 53 | 267 | 0.0 | 1.7 | 0.00 | 0.00 | 0.00 | 88 | 1024.7 |
| 20260510092204 | 53 | 267 | 0.0 | 1.7 | 0.00 | 0.00 | 0.00 | 89 | 1024.9 |
| 20260510091703 | 53 | 267 | 0.0 | 0.0 | 0.00 | 0.00 | 0.00 | 89 | 1024.9 |
| 20260510091200 | 54 | 267 | 0.0 | 0.0 | 0.00 | 0.00 | 0.00 | 89 | 1024.8 |
| 20260510090658 | 54 | 267 | 0.0 | 0.9 | 0.00 | 0.00 | 0.00 | 88 | 1024.8 |
| 20260510090159 | 54 | 267 | 0.0 | 0.9 | 0.00 | 0.00 | 0.00 | 88 | 1024.7 |
| 20260510085658 | 54 | 267 | 0.0 | 0.9 | 0.00 | 0.00 | 0.00 | 88 | 1024.7 |
| 20260510085156 | 54 | 267 | 0.0 | 0.9 | 0.00 | 0.00 | 0.00 | 87 | 1024.8 |
| 20260510084656 | 54 | 267 | 0.0 | 0.9 | 0.00 | 0.00 | 0.00 | 87 | 1024.8 |
| 20260510084155 | 55 | 267 | 0.0 | 0.0 | 0.00 | 0.00 | 0.00 | 87 | 1024.8 |
| 20260510083652 | 55 | 267 | 0.0 | 0.0 | 0.00 | 0.00 | 0.00 | 86 | 1024.5 |
| 20260510083153 | 55 | 267 | 0.0 | 0.0 | 0.00 | 0.00 | 0.00 | 85 | 1024.5 |
| 20260510082654 | 56 | 267 | 0.0 | 0.0 | 0.00 | 0.00 | 0.00 | 85 | 1024.5 |
| 20260510082150 | 56 | 267 | 0.0 | 0.0 | 0.00 | 0.00 | 0.00 | 85 | 1024.5 |
| 20260510081649 | 56 | 267 | 0.0 | 0.9 | 0.00 | 0.00 | 0.00 | 85 | 1024.5 |
| 20260510081144 | 56 | 267 | 0.0 | 0.9 | 0.00 | 0.00 | 0.00 | 84 | 1024.6 |
| 20260510080642 | 57 | 267 | 0.0 | 0.0 | 0.00 | 0.00 | 0.00 | 84 | 1024.7 |
| 20260510080142 | 57 | 269 | 0.0 | 0.0 | 0.00 | 0.00 | 0.00 | 84 | 1024.6 |
| 20260510075638 | 57 | 268 | 0.0 | 0.0 | 0.00 | 0.00 | 0.00 | 83 | 1024.6 |
| 20260510075139 | 58 | 267 | 0.0 | 0.9 | 0.00 | 0.00 | 0.00 | 83 | 1024.6 |
| 20260510074633 | 58 | 267 | 0.0 | 0.9 | 0.00 | 0.00 | 0.00 | 83 | 1024.6 |
| 20260510074132 | 58 | 267 | 0.0 | 1.7 | 0.00 | 0.00 | 0.00 | 83 | 1024.6 |
| 20260510073632 | 58 | 267 | 0.9 | 1.7 | 0.00 | 0.00 | 0.00 | 83 | 1024.6 |
| 20260510073132 | 58 | 267 | 0.0 | 1.7 | 0.00 | 0.00 | 0.00 | 82 | 1024.5 |
| 20260510072632 | 58 | 263 | 0.0 | 1.7 | 0.00 | 0.00 | 0.00 | 82 | 1024.6 |
| 20260510072132 | 58 | 263 | 0.0 | 2.6 | 0.00 | 0.00 | 0.00 | 82 | 1024.6 |
| 20260510071628 | 58 | 263 | 0.0 | 2.6 | 0.00 | 0.00 | 0.00 | 82 | 1024.6 |
| 20260510071128 | 59 | 341 | 0.0 | 2.6 | 0.00 | 0.00 | 0.00 | 81 | 1024.5 |
| 20260510070626 | 59 | 346 | 0.0 | 2.6 | 0.00 | 0.00 | 0.00 | 81 | 1024.4 |
| 20260510070126 | 59 | 325 | 0.0 | 1.7 | 0.00 | 0.00 | 0.00 | 81 | 1024.5 |
| 20260510065627 | 59 | 288 | 0.0 | 0.9 | 0.00 | 0.00 | 0.00 | 81 | 1024.6 |
| 20260510065126 | 58 | 261 | 0.0 | 0.9 | 0.00 | 0.00 | 0.00 | 81 | 1024.5 |
| 20260510064621 | 59 | 262 | 0.0 | 0.9 | 0.00 | 0.00 | 0.00 | 80 | 1024.4 |
| 20260510064121 | 59 | 261 | 0.0 | 0.9 | 0.00 | 0.00 | 0.00 | 80 | 1024.4 |
| 20260510063620 | 59 | 261 | 0.0 | 0.9 | 0.00 | 0.00 | 0.00 | 80 | 1024.4 |
| 20260510063121 | 59 | 261 | 0.0 | 0.9 | 0.00 | 0.00 | 0.00 | 79 | 1024.3 |
| 20260510062618 | 60 | 261 | 0.0 | 0.0 | 0.00 | 0.00 | 0.00 | 78 | 1024.3 |
| 20260510062119 | 60 | 261 | 0.0 | 0.0 | 0.00 | 0.00 | 0.00 | 77 | 1024.2 |
| 20260510061614 | 61 | 262 | 0.0 | 0.0 | 0.00 | 0.00 | 0.00 | 76 | 1024.3 |
| 20260510061110 | 61 | 262 | 0.0 | 0.0 | 0.00 | 0.00 | 0.00 | 75 | 1024.2 |
| 20260510060610 | 62 | 261 | 0.0 | 0.0 | 0.00 | 0.00 | 0.00 | 75 | 1024.2 |
| 20260510060110 | 62 | 261 | 0.0 | 0.0 | 0.00 | 0.00 | 0.00 | 74 | 1024.2 |
| 20260510055610 | 62 | 261 | 0.0 | 0.0 | 0.00 | 0.00 | 0.00 | 74 | 1024.2 |
| 20260510055110 | 63 | 261 | 0.0 | 0.0 | 0.00 | 0.00 | 0.00 | 73 | 1024.0 |
| 20260510054609 | 63 | 261 | 0.0 | 0.9 | 0.00 | 0.00 | 0.00 | 73 | 1024.1 |
| 20260510054108 | 64 | 261 | 0.0 | 1.7 | 0.00 | 0.00 | 0.00 | 73 | 1024.1 |
| 20260510053610 | 64 | 261 | 0.9 | 5.2 | 0.00 | 0.00 | 0.00 | 72 | 1024.1 |
| 20260510053106 | 64 | 261 | 1.7 | 5.2 | 0.00 | 0.00 | 0.00 | 72 | 1024.1 |
| 20260510052604 | 64 | 302 | 2.6 | 5.2 | 0.00 | 0.00 | 0.00 | 72 | 1024.1 |
| 20260510052105 | 65 | 342 | 2.6 | 5.2 | 0.00 | 0.00 | 0.00 | 71 | 1024.0 |
| 20260510051600 | 65 | 298 | 2.6 | 7.0 | 0.00 | 0.00 | 0.00 | 71 | 1024.0 |
| 20260510051100 | 65 | 321 | 2.6 | 7.0 | 0.00 | 0.00 | 0.00 | 70 | 1024.0 |
| 20260510050602 | 65 | 340 | 2.6 | 6.1 | 0.00 | 0.00 | 0.00 | 69 | 1023.9 |
| 20260510050100 | 65 | 17 | 0.9 | 4.3 | 0.00 | 0.00 | 0.00 | 69 | 1023.8 |
| 20260510045558 | 66 | 315 | 0.9 | 2.6 | 0.00 | 0.00 | 0.00 | 68 | 1023.9 |
| 20260510045058 | 66 | 279 | 0.9 | 2.6 | 0.00 | 0.00 | 0.00 | 68 | 1023.9 |
| 20260510044556 | 66 | 257 | 0.9 | 5.2 | 0.00 | 0.00 | 0.00 | 68 | 1023.8 |
| 20260510044056 | 67 | 269 | 0.9 | 5.2 | 0.00 | 0.00 | 0.00 | 67 | 1023.7 |
| 20260510043557 | 67 | 267 | 0.9 | 3.5 | 0.00 | 0.00 | 0.00 | 67 | 1023.7 |
| 20260510043054 | 67 | 267 | 1.7 | 3.5 | 0.00 | 0.00 | 0.00 | 66 | 1023.6 |
| 20260510042552 | 67 | 265 | 1.7 | 4.3 | 0.00 | 0.00 | 0.00 | 65 | 1023.6 |
| 20260510042052 | 68 | 261 | 1.7 | 5.2 | 0.00 | 0.00 | 0.00 | 65 | 1023.6 |
| 20260510041547 | 68 | 305 | 2.6 | 5.2 | 0.00 | 0.00 | 0.00 | 65 | 1023.6 |
| 20260510041046 | 68 | 308 | 2.6 | 5.2 | 0.00 | 0.00 | 0.00 | 64 | 1023.5 |
| 20260510040546 | 68 | 302 | 1.7 | 5.2 | 0.00 | 0.00 | 0.00 | 64 | 1023.5 |
| 20260510040046 | 69 | 288 | 1.7 | 6.1 | 0.00 | 0.00 | 0.00 | 63 | 1023.3 |
| 20260510035551 | 69 | 271 | 1.7 | 6.1 | 0.00 | 0.00 | 0.00 | 63 | 1023.2 |
| 20260510035046 | 70 | 285 | 1.7 | 2.6 | 0.00 | 0.00 | 0.00 | 62 | 1023.2 |
| 20260510034544 | 70 | 296 | 0.9 | 2.6 | 0.00 | 0.00 | 0.00 | 61 | 1023.2 |
| 20260510034044 | 71 | 291 | 0.9 | 2.6 | 0.00 | 0.00 | 0.00 | 60 | 1023.1 |
| 20260510033545 | 71 | 250 | 1.7 | 6.1 | 0.00 | 0.00 | 0.00 | 59 | 1023.0 |
| 20260510033042 | 72 | 257 | 2.6 | 6.1 | 0.00 | 0.00 | 0.00 | 58 | 1023.0 |
| 20260510032540 | 72 | 288 | 2.6 | 6.1 | 0.00 | 0.00 | 0.00 | 57 | 1023.0 |
| 20260510032040 | 73 | 279 | 2.6 | 6.1 | 0.00 | 0.00 | 0.00 | 55 | 1022.9 |
| 20260510031538 | 74 | 298 | 0.9 | 3.5 | 0.00 | 0.00 | 0.00 | 50 | 1022.9 |
| 20260510031036 | 74 | 275 | 0.0 | 0.0 | 0.00 | 0.00 | 0.00 | 48 | 1022.9 |
| 20260510030534 | 75 | 275 | 0.0 | 1.7 | 0.00 | 0.00 | 0.00 | 48 | 1022.9 |
| 20260510030035 | 76 | 275 | 0.0 | 1.7 | 0.00 | 0.00 | 0.00 | 47 | 1022.7 |
| 20260510025534 | 76 | 275 | 0.0 | 0.9 | 0.00 | 0.00 | 0.00 | 47 | 1022.8 |
| 20260510025035 | 77 | 275 | 0.0 | 0.9 | 0.00 | 0.00 | 0.00 | 48 | 1022.7 |
| 20260510024532 | 77 | 275 | 0.0 | 1.7 | 0.00 | 0.00 | 0.00 | 46 | 1022.7 |
| 20260510024029 | 77 | 275 | 0.0 | 2.6 | 0.00 | 0.00 | 0.00 | 46 | 1022.7 |
| 20260510023530 | 78 | 275 | 0.9 | 2.6 | 0.00 | 0.00 | 0.00 | 46 | 1022.8 |
| 20260510023031 | 78 | 275 | 0.9 | 2.6 | 0.00 | 0.00 | 0.00 | 44 | 1022.8 |
| 20260510022528 | 78 | 275 | 0.9 | 2.6 | 0.00 | 0.00 | 0.00 | 44 | 1022.8 |
| 20260510022027 | 78 | 336 | 0.0 | 2.6 | 0.00 | 0.00 | 0.00 | 43 | 1022.8 |
| 20260510021522 | 78 | 83 | 0.0 | 2.6 | 0.00 | 0.00 | 0.00 | 45 | 1022.9 |
| 20260510021021 | 79 | 81 | 0.9 | 2.6 | 0.00 | 0.00 | 0.00 | 45 | 1022.7 |
| 20260510020517 | 79 | 9 | 0.9 | 3.5 | 0.00 | 0.00 | 0.00 | 44 | 1022.7 |
| 20260510020015 | 79 | 42 | 0.9 | 3.5 | 0.00 | 0.00 | 0.00 | 43 | 1022.8 |
| 20260510015517 | 79 | 82 | 0.0 | 2.6 | 0.00 | 0.00 | 0.00 | 43 | 1022.8 |
| 20260510015009 | 79 | 35 | 0.9 | 3.5 | 0.00 | 0.00 | 0.00 | 42 | 1022.8 |
| 20260510014509 | 79 | 37 | 0.9 | 3.5 | 0.00 | 0.00 | 0.00 | 41 | 1022.8 |
| 20260510014010 | 79 | 28 | 0.9 | 3.5 | 0.00 | 0.00 | 0.00 | 39 | 1022.9 |
| 20260510013514 | 80 | 5 | 0.9 | 4.3 | 0.00 | 0.00 | 0.00 | 41 | 1022.9 |
| 20260510013010 | 80 | 21 | 0.9 | 4.3 | 0.00 | 0.00 | 0.00 | 40 | 1023.1 |
| 20260510012511 | 80 | 311 | 1.7 | 3.5 | 0.00 | 0.00 | 0.00 | 38 | 1023.1 |
| 20260510012005 | 80 | 308 | 1.7 | 3.5 | 0.00 | 0.00 | 0.00 | 39 | 1023.0 |
| 20260510011510 | 80 | 325 | 0.9 | 4.3 | 0.00 | 0.00 | 0.00 | 39 | 1023.0 |
| 20260510011004 | 80 | 306 | 1.7 | 6.1 | 0.00 | 0.00 | 0.00 | 41 | 1023.1 |
| 20260510010504 | 80 | 38 | 0.9 | 6.1 | 0.00 | 0.00 | 0.00 | 41 | 1023.1 |
| 20260510010004 | 80 | 24 | 0.9 | 5.2 | 0.00 | 0.00 | 0.00 | 42 | 1023.2 |
| 20260510005505 | 80 | 286 | 0.9 | 5.2 | 0.00 | 0.00 | 0.00 | 40 | 1023.1 |
| 20260510004958 | 80 | 86 | 0.9 | 7.0 | 0.00 | 0.00 | 0.00 | 40 | 1023.3 |
| 20260510004457 | 80 | 42 | 1.7 | 7.0 | 0.00 | 0.00 | 0.00 | 40 | 1023.3 |
| 20260510003958 | 80 | 60 | 1.7 | 5.2 | 0.00 | 0.00 | 0.00 | 41 | 1023.3 |
| 20260510003458 | 80 | 24 | 0.9 | 4.3 | 0.00 | 0.00 | 0.00 | 40 | 1023.3 |
| 20260510002958 | 80 | 294 | 0.9 | 4.3 | 0.00 | 0.00 | 0.00 | 41 | 1023.4 |
| 20260510002458 | 80 | 40 | 0.9 | 3.5 | 0.00 | 0.00 | 0.00 | 40 | 1023.4 |
| 20260510001955 | 81 | 279 | 0.9 | 3.5 | 0.00 | 0.00 | 0.00 | 41 | 1023.5 |
| 20260510001454 | 81 | 298 | 1.7 | 6.1 | 0.00 | 0.00 | 0.00 | 41 | 1023.5 |
| 20260510000955 | 81 | 291 | 1.7 | 6.1 | 0.00 | 0.00 | 0.00 | 42 | 1023.5 |
| 20260510000455 | 81 | 0 | 1.7 | 6.1 | 0.00 | 0.00 | 0.00 | 41 | 1023.6 |
| 20260509235952 | 81 | 286 | 1.7 | 6.1 | 0.00 | 0.00 | 0.00 | 42 | 1023.6 |
| 20260509235453 | 81 | 11 | 1.7 | 4.3 | 0.00 | 0.00 | 0.00 | 43 | 1023.7 |
| 20260509234947 | 80 | 78 | 1.7 | 7.0 | 0.00 | 0.00 | 0.00 | 45 | 1023.7 |
| 20260509234445 | 80 | 276 | 1.7 | 7.0 | 0.00 | 0.00 | 0.00 | 44 | 1023.7 |
| 20260509233946 | 80 | 44 | 0.9 | 4.3 | 0.00 | 0.00 | 0.00 | 48 | 1023.8 |
| 20260509233444 | 80 | 13 | 2.6 | 7.0 | 0.00 | 0.00 | 0.00 | 41 | 1023.9 |
| 20260509232944 | 80 | 37 | 2.6 | 7.0 | 0.00 | 0.00 | 0.00 | 43 | 1023.8 |
| 20260509232445 | 80 | 267 | 1.7 | 4.3 | 0.00 | 0.00 | 0.00 | 44 | 1023.9 |
| 20260509231945 | 80 | 0 | 1.7 | 4.3 | 0.00 | 0.00 | 0.00 | 43 | 1024.0 |
| 20260509231444 | 80 | 301 | 1.7 | 4.3 | 0.00 | 0.00 | 0.00 | 44 | 1024.1 |
| 20260509230944 | 80 | 66 | 1.7 | 8.7 | 0.00 | 0.00 | 0.00 | 46 | 1024.1 |
| 20260509230444 | 80 | 31 | 2.6 | 8.7 | 0.00 | 0.00 | 0.00 | 48 | 1024.1 |
| 20260509225943 | 80 | 9 | 1.7 | 5.2 | 0.00 | 0.00 | 0.00 | 48 | 1024.3 |
| 20260509225442 | 79 | 328 | 1.7 | 5.2 | 0.00 | 0.00 | 0.00 | 48 | 1024.3 |
| 20260509224942 | 79 | 77 | 2.6 | 7.8 | 0.00 | 0.00 | 0.00 | 47 | 1024.4 |
| 20260509224443 | 80 | 5 | 2.6 | 7.8 | 0.00 | 0.00 | 0.00 | 43 | 1024.5 |
| 20260509223939 | 79 | 51 | 1.7 | 7.0 | 0.00 | 0.00 | 0.00 | 47 | 1024.4 |
| 20260509223440 | 79 | 46 | 1.7 | 7.0 | 0.00 | 0.00 | 0.00 | 50 | 1024.5 |
| 20260509222940 | 79 | 54 | 2.6 | 5.2 | 0.00 | 0.00 | 0.00 | 49 | 1024.7 |
| 20260509222439 | 78 | 5 | 2.6 | 7.8 | 0.00 | 0.00 | 0.00 | 50 | 1024.8 |
| 20260509221940 | 78 | 27 | 2.6 | 7.8 | 0.00 | 0.00 | 0.00 | 50 | 1024.9 |
| 20260509221440 | 78 | 338 | 2.6 | 7.8 | 0.00 | 0.00 | 0.00 | 49 | 1025.0 |
| 20260509220940 | 78 | 335 | 3.5 | 8.7 | 0.00 | 0.00 | 0.00 | 51 | 1025.0 |
| 20260509220436 | 78 | 279 | 3.5 | 8.7 | 0.00 | 0.00 | 0.00 | 50 | 1025.2 |
| 20260509215937 | 77 | 24 | 2.6 | 7.8 | 0.00 | 0.00 | 0.00 | 52 | 1025.2 |
| 20260509215436 | 77 | 281 | 2.6 | 7.0 | 0.00 | 0.00 | 0.00 | 50 | 1025.4 |
| 20260509214935 | 78 | 221 | 3.5 | 8.7 | 0.00 | 0.00 | 0.00 | 53 | 1025.5 |
| 20260509214437 | 78 | 338 | 2.6 | 8.7 | 0.00 | 0.00 | 0.00 | 53 | 1025.5 |
| 20260509213931 | 77 | 41 | 2.6 | 7.0 | 0.00 | 0.00 | 0.00 | 53 | 1025.5 |
| 20260509213433 | 77 | 311 | 2.6 | 7.8 | 0.00 | 0.00 | 0.00 | 54 | 1025.6 |
| 20260509212932 | 77 | 5 | 3.5 | 7.8 | 0.00 | 0.00 | 0.00 | 54 | 1025.6 |
| 20260509212431 | 76 | 61 | 2.6 | 7.0 | 0.00 | 0.00 | 0.00 | 56 | 1025.7 |
| 20260509211931 | 76 | 265 | 2.6 | 7.8 | 0.00 | 0.00 | 0.00 | 58 | 1025.8 |